FW7313 Weather Reports


time (UTC)temp
C
wind
direction
speed
KPH
gust
KPH
rain 1hr
cm
rain 24hr
cm
rain mn
cm
humidity
%
barometer
mb
20260505170405 25 152 1.6 4.8 0.00 0.00 0.00 78 1008.4
20260505165900 26 202 8.0 16.1 0.00 0.00 0.00 76 1008.7
20260505165356 26 202 12.9 17.7 0.00 0.00 0.00 73 1008.7
20260505164852 26 75 3.2 17.7 0.00 0.00 0.00 73 1008.4
20260505164349 26 112 4.8 9.7 0.00 0.00 0.00 73 1008.3
20260505163847 26 319 6.4 6.4 0.00 0.00 0.00 74 1008.3
20260505163346 26 184 4.8 11.3 0.00 0.00 0.00 74 1008.4
20260505162844 26 167 3.2 9.7 0.00 0.00 0.00 74 1008.4
20260505162339 26 261 4.8 12.9 0.00 0.00 0.00 73 1008.5
20260505161837 26 8 3.2 20.9 0.00 0.00 0.00 73 1008.5
20260505161333 26 168 11.3 27.4 0.00 0.00 0.00 72 1008.1
20260505160831 26 141 4.8 12.9 0.00 0.00 0.00 72 1008.2
20260505160324 26 152 3.2 9.7 0.00 0.00 0.00 74 1008.2
20260505153302 27 210 8.0 12.9 0.00 0.00 0.00 70 1008.0
20260505152759 27 131 4.8 6.4 0.00 0.00 0.00 70 1008.1
20260505152255 27 211 12.9 17.7 0.00 0.00 0.00 68 1008.0
20260505151749 27 224 6.4 17.7 0.00 0.00 0.00 69 1007.9
20260505151247 27 234 3.2 17.7 0.00 0.00 0.00 69 1008.0
20260505150744 27 170 4.8 11.3 0.00 0.00 0.00 70 1007.8
20260505150242 27 130 6.4 12.9 0.00 0.00 0.00 70 1007.8
20260505140211 25 192 1.6 9.7 0.00 0.00 0.00 78 1008.2
20260505130135 24 136 6.4 9.7 0.00 0.00 0.00 78 1007.7
20260505124625 23 136 4.8 11.3 0.00 0.00 0.00 81 1007.7
20260505124121 23 167 4.8 9.7 0.00 0.00 0.00 81 1007.7
20260505123617 23 215 4.8 4.8 0.00 0.00 0.00 81 1007.6
20260505123114 23 142 4.8 12.9 0.00 0.00 0.00 81 1007.6
20260505122611 23 175 6.4 11.3 0.00 0.00 0.00 81 1007.6
20260505122108 23 190 4.8 11.3 0.00 0.00 0.00 81 1007.6
20260505121605 23 305 1.6 9.7 0.00 0.00 0.00 81 1007.6
20260505121102 23 157 3.2 11.3 0.00 0.00 0.00 81 1007.5
20260505120558 23 186 1.6 1.6 0.00 0.00 0.00 81 1007.7
20260505120054 23 247 3.2 6.4 0.00 0.00 0.00 81 1007.5
20260505115548 23 167 1.6 6.4 0.00 0.00 0.00 81 1007.5
20260505115046 23 184 1.6 6.4 0.00 0.00 0.00 81 1007.7
20260505114543 23 152 4.8 6.4 0.00 0.00 0.00 81 1007.4
20260505114039 23 183 1.6 4.8 0.00 0.00 0.00 81 1007.5
20260505113535 23 177 6.4 11.3 0.00 0.00 0.00 81 1007.2
20260505113032 22 226 4.8 6.4 0.00 0.00 0.00 81 1007.3
20260505112528 22 310 1.6 1.6 0.00 0.00 0.00 81 1007.5
20260505112021 22 255 1.6 4.8 0.00 0.00 0.00 81 1007.4
20260505111514 22 163 3.2 6.4 0.00 0.00 0.00 81 1007.7
20260505111010 22 189 1.6 1.6 0.00 0.00 0.00 81 1007.6
20260505110507 22 233 0.0 1.6 0.00 0.00 0.00 81 1007.7
20260505101939 22 161 3.2 4.8 0.00 0.00 0.00 80 1007.5
20260505101433 22 30 0.0 9.7 0.00 0.00 0.00 80 1007.5
20260505100928 22 155 1.6 4.8 0.00 0.00 0.00 80 1007.5
20260505100426 22 200 3.2 4.8 0.00 0.00 0.00 80 1007.5
20260505095921 22 184 0.0 4.8 0.00 0.00 0.00 80 1007.5
20260505095418 22 235 1.6 9.7 0.00 0.00 0.00 80 1007.3
20260505094914 22 190 1.6 4.8 0.00 0.00 0.00 80 1007.5
20260505094412 22 225 3.2 4.8 0.00 0.00 0.00 80 1007.6
20260505093908 22 215 0.0 1.6 0.00 0.00 0.00 80 1007.7
20260505093404 22 137 4.8 6.4 0.00 0.00 0.00 80 1007.8
20260505092902 22 205 0.0 6.4 0.00 0.00 0.00 80 1007.7
20260505092400 22 297 3.2 1.6 0.00 0.00 0.00 80 1007.7
20260505091857 22 220 0.0 9.7 0.00 0.00 0.00 80 1007.5
20260505091355 22 179 1.6 9.7 0.00 0.00 0.00 80 1007.5
20260505090852 22 155 0.0 6.4 0.00 0.00 0.00 80 1007.7
20260505090351 22 249 1.6 4.8 0.00 0.00 0.00 80 1007.7
20260505085847 22 173 1.6 1.6 0.00 0.00 0.00 79 1007.7
20260505085345 22 215 1.6 4.8 0.00 0.00 0.00 79 1007.5
20260505084843 22 249 3.2 4.8 0.00 0.00 0.00 79 1007.9
20260505084341 22 331 1.6 4.8 0.00 0.00 0.00 78 1007.5
20260505083838 22 152 1.6 4.8 0.00 0.00 0.00 78 1007.6
20260505083336 23 223 1.6 6.4 0.00 0.00 0.00 77 1007.8
20260505082832 23 311 0.0 1.6 0.00 0.00 0.00 77 1007.7
20260505082328 23 305 0.0 6.4 0.00 0.00 0.00 77 1007.6
20260505081825 23 164 0.0 6.4 0.00 0.00 0.00 77 1007.7
20260505081322 23 183 0.0 6.4 0.00 0.00 0.00 76 1007.9
20260505080819 23 177 0.0 6.4 0.00 0.00 0.00 76 1008.0
20260505080314 23 267 0.0 12.9 0.00 0.00 0.00 76 1007.8
20260505075810 23 200 1.6 6.4 0.00 0.00 0.00 76 1007.9
20260505075307 22 122 0.0 11.3 0.00 0.00 0.00 77 1008.2
20260505074804 22 219 3.2 11.3 0.00 0.00 0.00 77 1008.0
20260505074301 22 228 0.0 4.8 0.00 0.00 0.00 77 1008.0
20260505073758 22 74 0.0 1.6 0.00 0.00 0.00 76 1007.9
20260505073257 22 157 0.0 0.0 0.00 0.00 0.00 76 1007.9
20260505072753 22 181 0.0 6.4 0.00 0.00 0.00 76 1007.8
20260505072249 22 281 0.0 0.0 0.00 0.00 0.00 76 1008.1
20260505071745 22 150 0.0 0.0 0.00 0.00 0.00 76 1008.1
20260505071242 22 229 0.0 6.4 0.00 0.00 0.00 76 1008.2
20260505070740 22 161 3.2 4.8 0.00 0.00 0.00 76 1008.2
20260505070236 22 244 1.6 4.8 0.00 0.00 0.00 76 1008.2
20260505065731 22 164 0.0 1.6 0.00 0.00 0.00 77 1008.6
20260505065229 22 169 0.0 0.0 0.00 0.00 0.00 77 1008.6
20260505064726 22 165 0.0 0.0 0.00 0.00 0.00 77 1008.6
20260505064223 22 201 0.0 0.0 0.00 0.00 0.00 77 1008.6
20260505063720 22 232 0.0 4.8 0.00 0.00 0.00 77 1008.7
20260505063216 22 183 0.0 6.4 0.00 0.00 0.00 77 1009.1
20260505062713 22 183 0.0 0.0 0.00 0.00 0.00 77 1009.1
20260505062211 22 173 0.0 6.4 0.00 0.00 0.00 77 1008.9
20260505061708 21 179 0.0 1.6 0.00 0.00 0.00 78 1009.1
20260505061206 21 187 0.0 0.0 0.00 0.00 0.00 78 1009.2
20260505060703 21 132 0.0 6.4 0.00 0.00 0.00 77 1008.9
20260505060159 21 212 0.0 0.0 0.00 0.00 0.00 77 1008.8
20260505055655 21 204 0.0 0.0 0.00 0.00 0.00 77 1009.1
20260505055151 21 226 0.0 1.6 0.00 0.00 0.00 77 1009.2
20260505054649 21 203 0.0 0.0 0.00 0.00 0.00 76 1008.9
20260505054147 21 197 0.0 0.0 0.00 0.00 0.00 76 1009.2
20260505053645 21 175 0.0 6.4 0.00 0.00 0.00 76 1009.2
20260505053140 21 91 0.0 0.0 0.00 0.00 0.00 76 1009.4
20260505052638 21 167 0.0 0.0 0.00 0.00 0.00 75 1009.2
20260505052135 22 213 0.0 6.4 0.00 0.00 0.00 75 1009.2
20260505051632 22 161 0.0 0.0 0.00 0.00 0.00 75 1009.3
20260505051130 22 177 0.0 0.0 0.00 0.00 0.00 74 1009.2
20260505050628 22 250 0.0 6.4 0.00 0.00 0.00 74 1009.2
20260505050126 22 152 0.0 4.8 0.00 0.00 0.00 75 1009.3
20260505041556 21 147 4.8 9.7 0.00 0.00 0.00 74 1009.5
20260505041053 21 173 4.8 9.7 0.00 0.00 0.00 74 1009.6
20260505040550 21 166 0.0 4.8 0.00 0.00 0.00 74 1009.7
20260505040047 21 157 0.0 4.8 0.00 0.00 0.00 73 1009.8
20260505035543 21 183 0.0 0.0 0.00 0.00 0.00 73 1009.9
20260505035040 21 197 0.0 6.4 0.00 0.00 0.00 73 1009.6
20260505034536 22 149 1.6 1.6 0.00 0.00 0.00 72 1010.0
20260505034033 22 178 0.0 9.7 0.00 0.00 0.00 72 1010.0
20260505033530 22 140 1.6 4.8 0.00 0.00 0.00 72 1009.9
20260505033028 22 203 0.0 1.6 0.00 0.00 0.00 71 1009.9
20260505032526 22 193 0.0 1.6 0.00 0.00 0.00 71 1010.0
20260505032022 22 173 0.0 4.8 0.00 0.00 0.00 71 1009.7
20260505031520 22 149 3.2 11.3 0.00 0.00 0.00 70 1009.8
20260505031016 22 176 0.0 6.4 0.00 0.00 0.00 70 1010.1
20260505030513 22 270 0.0 4.8 0.00 0.00 0.00 70 1010.0
20260505030009 22 129 0.0 4.8 0.00 0.00 0.00 70 1010.1
20260505025505 22 190 0.0 9.7 0.00 0.00 0.00 69 1010.1
20260505025004 22 164 0.0 0.0 0.00 0.00 0.00 69 1010.1
20260505024500 22 168 0.0 9.7 0.00 0.00 0.00 69 1009.9
20260505023958 22 171 1.6 4.8 0.00 0.00 0.00 69 1009.9
20260505023454 22 184 0.0 0.0 0.00 0.00 0.00 68 1009.9
20260505022952 22 173 0.0 6.4 0.00 0.00 0.00 68 1009.9
20260505022449 22 165 4.8 6.4 0.00 0.00 0.00 67 1009.9
20260505021947 22 165 1.6 4.8 0.00 0.00 0.00 67 1009.8
20260505021443 22 54 0.0 1.6 0.00 0.00 0.00 67 1010.0
20260505020938 22 214 4.8 9.7 0.00 0.00 0.00 67 1009.6
20260505020434 22 176 0.0 11.3 0.00 0.00 0.00 66 1010.1
20260505015931 22 183 0.0 1.6 0.00 0.00 0.00 66 1009.7
20260505015428 22 192 1.6 6.4 0.00 0.00 0.00 66 1009.5
20260505014925 22 207 3.2 9.7 0.00 0.00 0.00 65 1009.7
20260505014422 23 115 9.7 22.5 0.00 0.00 0.00 65 1009.3
20260505013919 23 151 0.0 1.6 0.00 0.00 0.00 64 1009.7
20260505013416 23 164 0.0 12.9 0.00 0.00 0.00 64 1009.6
20260505012914 23 190 11.3 12.9 0.00 0.00 0.00 64 1009.9
20260505012412 23 183 4.8 12.9 0.00 0.00 0.00 64 1009.8
20260505011908 23 118 3.2 11.3 0.00 0.00 0.00 64 1009.6
20260505011405 23 183 4.8 12.9 0.00 0.00 0.00 63 1009.6
20260505010901 23 175 4.8 9.7 0.00 0.00 0.00 63 1009.4
20260505010357 23 154 3.2 9.7 0.00 0.00 0.00 63 1009.5
20260505005853 23 194 4.8 12.9 0.00 0.00 0.00 63 1009.5
20260505005350 23 153 3.2 11.3 0.00 0.00 0.00 63 1009.6
20260505004848 23 156 8.0 17.7 0.00 0.00 0.00 62 1009.5
20260505004344 23 190 14.5 17.7 0.00 0.00 0.00 61 1009.5
20260505003841 23 143 3.2 11.3 0.00 0.00 0.00 61 1009.5
20260505003338 23 168 9.7 24.1 0.00 0.00 0.00 61 1009.5
20260505002834 23 147 0.0 20.9 0.00 0.00 0.00 60 1009.3
20260505002331 23 247 3.2 20.9 0.00 0.00 0.00 60 1009.5
20260505001830 24 225 12.9 16.1 0.00 0.00 0.00 59 1009.5
20260505001326 24 180 11.3 20.9 0.00 0.00 0.00 58 1009.6
20260505000824 24 152 0.0 1.6 0.00 0.00 0.00 58 1009.6
20260505000321 24 217 9.7 22.5 0.00 0.00 0.00 58 1009.4
20260504235818 25 161 3.2 17.7 0.00 0.00 0.00 57 1009.6
20260504235315 25 146 4.8 12.9 0.00 0.00 0.00 57 1009.5
20260504234811 25 147 8.0 22.5 0.00 0.00 0.00 56 1009.8
20260504234309 25 291 1.6 16.1 0.00 0.00 0.00 56 1009.7
20260504233805 25 169 1.6 17.7 0.00 0.00 0.00 56 1009.8
20260504233301 25 203 12.9 20.9 0.00 0.00 0.00 55 1009.8
20260504232758 25 201 0.0 20.9 0.00 0.00 0.00 56 1009.8
20260504232255 25 267 3.2 6.4 0.00 0.00 0.00 56 1009.9
20260504231752 25 180 16.1 20.9 0.00 0.00 0.00 55 1010.1
20260504231248 25 142 11.3 22.5 0.00 0.00 0.00 55 1010.1
20260504230744 25 181 1.6 17.7 0.00 0.00 0.00 55 1010.3
20260504230243 25 199 0.0 17.7 0.00 0.00 0.00 55 1010.0
20260504225741 25 222 1.6 11.3 0.00 0.00 0.00 56 1010.2
20260504225237 25 181 6.4 16.1 0.00 0.00 0.00 54 1010.3
20260504224734 26 163 1.6 17.7 0.00 0.00 0.00 54 1010.3
20260504224232 26 264 0.0 11.3 0.00 0.00 0.00 53 1010.4
20260504223728 25 219 3.2 16.1 0.00 0.00 0.00 54 1010.3
20260504223224 25 273 0.0 11.3 0.00 0.00 0.00 54 1010.3
20260504222721 25 141 6.4 9.7 0.00 0.00 0.00 54 1010.4
20260504222217 25 171 3.2 6.4 0.00 0.00 0.00 54 1010.8
20260504221715 25 211 0.0 6.4 0.00 0.00 0.00 54 1010.7
20260504221212 25 200 1.6 16.1 0.00 0.00 0.00 54 1010.7
20260504220708 25 152 1.6 9.7 0.00 0.00 0.00 54 1010.8
20260504220206 25 188 1.6 9.7 0.00 0.00 0.00 55 1010.9
20260504215702 25 165 4.8 16.1 0.00 0.00 0.00 54 1010.9
20260504215200 25 132 14.5 17.7 0.00 0.00 0.00 52 1010.7
20260504214655 25 206 3.2 9.7 0.00 0.00 0.00 52 1011.0
20260504214152 25 194 6.4 9.7 0.00 0.00 0.00 52 1011.0
20260504213649 25 272 0.0 12.9 0.00 0.00 0.00 52 1011.2
20260504213145 26 241 9.7 20.9 0.00 0.00 0.00 51 1011.1
20260504212642 26 256 8.0 17.7 0.00 0.00 0.00 51 1011.1
20260504212138 26 261 1.6 20.9 0.00 0.00 0.00 51 1011.1
20260504211636 26 145 6.4 24.1 0.00 0.00 0.00 50 1011.1
20260504211132 26 4 3.2 11.3 0.00 0.00 0.00 49 1011.2
20260504210630 26 145 0.0 4.8 0.00 0.00 0.00 48 1011.3
20260504210126 26 223 0.0 11.3 0.00 0.00 0.00 51 1011.4
20260504205624 26 163 4.8 12.9 0.00 0.00 0.00 48 1011.3
20260504205121 26 199 4.8 11.3 0.00 0.00 0.00 49 1011.4
20260504204620 26 286 6.4 9.7 0.00 0.00 0.00 47 1011.5
20260504204118 27 248 1.6 9.7 0.00 0.00 0.00 47 1011.5
20260504203616 27 218 6.4 11.3 0.00 0.00 0.00 45 1011.7
20260504203114 26 263 0.0 9.7 0.00 0.00 0.00 49 1011.6
20260504202608 26 162 1.6 9.7 0.00 0.00 0.00 47 1011.5
20260504202106 26 256 0.0 22.5 0.00 0.00 0.00 48 1011.6
20260504201603 27 262 0.0 4.8 0.00 0.00 0.00 46 1011.9
20260504201100 27 216 8.0 20.9 0.00 0.00 0.00 47 1011.8
20260504200556 27 273 0.0 16.1 0.00 0.00 0.00 46 1012.1
20260504200053 27 174 0.0 17.7 0.00 0.00 0.00 46 1011.9
20260504195549 27 249 6.4 17.7 0.00 0.00 0.00 44 1011.9
20260504195046 28 244 1.6 9.7 0.00 0.00 0.00 45 1012.0
20260504194543 27 228 0.0 9.7 0.00 0.00 0.00 48 1012.1
20260504194038 27 173 11.3 20.9 0.00 0.00 0.00 44 1012.1
20260504193535 28 123 4.8 9.7 0.00 0.00 0.00 43 1012.2
20260504193034 27 232 0.0 9.7 0.00 0.00 0.00 46 1012.6
20260504192532 27 179 6.4 12.9 0.00 0.00 0.00 44 1012.4
20260504192030 27 213 12.9 20.9 0.00 0.00 0.00 44 1012.6
20260504191527 27 184 0.0 12.9 0.00 0.00 0.00 44 1012.5
20260504191023 28 141 1.6 9.7 0.00 0.00 0.00 43 1012.5
20260504190520 27 161 1.6 4.8 0.00 0.00 0.00 44 1012.4
20260504190015 27 5 0.0 11.3 0.00 0.00 0.00 44 1012.4
20260504185513 28 165 8.0 17.7 0.00 0.00 0.00 43 1012.6
20260504185009 28 148 4.8 20.9 0.00 0.00 0.00 42 1012.7
20260504184504 27 224 3.2 16.1 0.00 0.00 0.00 46 1012.6
20260504184000 28 213 6.4 24.1 0.00 0.00 0.00 45 1012.6
20260504183457 27 159 1.6 6.4 0.00 0.00 0.00 43 1012.6
20260504182955 26 27 0.0 12.9 0.00 0.00 0.00 46 1012.6
20260504182452 26 136 9.7 12.9 0.00 0.00 0.00 46 1012.8
20260504181949 27 135 1.6 20.9 0.00 0.00 0.00 46 1013.0
20260504181446 27 275 0.0 11.3 0.00 0.00 0.00 43 1013.1
20260504180945 27 245 4.8 6.4 0.00 0.00 0.00 44 1013.1
20260504180443 27 180 6.4 20.9 0.00 0.00 0.00 43 1013.1
20260504175941 27 211 6.4 9.7 0.00 0.00 0.00 44 1013.1
20260504175438 27 169 6.4 12.9 0.00 0.00 0.00 44 1013.2
20260504174936 27 178 4.8 9.7 0.00 0.00 0.00 44 1013.1
20260504174433 26 219 0.0 16.1 0.00 0.00 0.00 47 1013.3
20260504173930 26 217 4.8 20.9 0.00 0.00 0.00 46 1013.4
20260504173426 27 280 6.4 16.1 0.00 0.00 0.00 43 1013.5
20260504172924 26 287 3.2 11.3 0.00 0.00 0.00 46 1013.6
20260504172420 27 286 4.8 22.5 0.00 0.00 0.00 44 1013.4
20260504171916 26 152 0.0 16.1 0.00 0.00 0.00 44 1013.5
20260504171414 27 170 1.6 12.9 0.00 0.00 0.00 45 1013.6
20260504170911 26 179 4.8 17.7 0.00 0.00 0.00 45 1013.8